FW7617 Weather Reports


time (UTC)temp
F
wind
direction
speed
knots
gust
knots
rain 1hr
in
rain 24hr
in
rain mn
in
humidity
%
barometer
mb
20260510192518 78 257 2.6 7.0 0.00 0.10 0.00 46 1012.6
20260510191537 78 253 2.6 6.1 0.00 0.10 0.00 49 1012.6
20260510190518 78 270 0.9 2.6 0.00 0.10 0.00 52 1012.6
20260510185518 76 245 2.6 5.2 0.00 0.10 0.00 51 1012.7
20260510184518 76 246 2.6 5.2 0.00 0.10 0.00 51 1012.8
20260510183515 76 258 2.6 4.3 0.00 0.10 0.00 53 1012.7
20260510182515 74 246 2.6 5.2 0.00 0.10 0.00 55 1012.7
20260510181515 75 256 1.7 4.3 0.00 0.10 0.00 57 1012.7
20260510180516 74 233 2.6 4.3 0.00 0.10 0.00 58 1012.6
20260510175516 74 243 1.7 4.3 0.00 0.10 0.00 60 1012.8
20260510174515 75 245 2.6 7.0 0.00 0.11 0.00 60 1012.8
20260510173516 74 359 1.7 6.1 0.00 0.11 0.00 65 1012.7
20260510172516 73 241 1.7 5.2 0.00 0.11 0.00 64 1012.6
20260510171537 73 336 2.6 5.2 0.00 0.11 0.00 67 1012.7
20260510170516 72 228 1.7 5.2 0.00 0.11 0.00 63 1012.7
20260510165517 70 300 2.6 5.2 0.00 0.11 0.00 69 1012.8
20260510164557 70 258 1.7 4.3 0.00 0.11 0.00 71 1012.9
20260510163517 70 306 1.7 3.5 0.00 0.11 0.00 71 1012.9
20260510162538 70 269 1.7 7.0 0.00 0.11 0.00 70 1013.0
20260510161518 68 282 1.7 4.3 0.00 0.11 0.00 74 1013.0
20260510160537 67 114 1.7 3.5 0.00 0.11 0.00 75 1013.1
20260510155518 66 178 1.7 4.3 0.00 0.11 0.00 75 1013.2
20260510154515 65 255 1.7 4.3 0.00 0.11 0.00 78 1013.4
20260510153515 64 72 1.7 3.5 0.00 0.11 0.00 81 1013.3
20260510152535 63 164 1.7 4.3 0.00 0.11 0.00 81 1013.5
20260510151515 62 272 1.7 4.3 0.00 0.11 0.00 83 1013.6
20260510150516 61 209 1.7 4.3 0.00 0.11 0.00 85 1013.5
20260510145516 60 243 1.7 3.5 0.00 0.11 0.00 86 1013.4
20260510144516 60 248 1.7 3.5 0.00 0.11 0.00 87 1013.5
20260510143556 59 193 1.7 4.3 0.00 0.11 0.00 88 1013.5
20260510142516 58 206 0.9 4.3 0.00 0.11 0.00 91 1013.5
20260510141516 57 207 1.7 4.3 0.00 0.11 0.00 92 1013.3
20260510140517 57 130 1.7 3.5 0.00 0.11 0.00 93 1013.3
20260510135517 56 195 1.7 3.5 0.00 0.11 0.00 95 1013.2
20260510134537 56 201 1.7 3.5 0.00 0.11 0.00 97 1013.2
20260510133537 55 147 1.7 3.5 0.00 0.11 0.00 98 1013.2
20260510132537 55 195 1.7 3.5 0.00 0.11 0.00 98 1013.3
20260510131517 55 224 1.7 2.6 0.00 0.11 0.00 99 1013.4
20260510130537 54 191 1.7 4.3 0.00 0.11 0.00 99 1013.3
20260510125518 54 196 0.9 2.6 0.00 0.11 0.00 99 1013.0
20260510124518 54 189 1.7 4.3 0.00 0.11 0.00 99 1012.9
20260510123515 54 111 1.7 3.5 0.00 0.11 0.00 100 1012.6
20260510122515 53 164 0.9 2.6 0.00 0.11 0.00 100 1012.7
20260510121516 53 172 1.7 5.2 0.00 0.11 0.00 99 1012.4
20260510120515 53 125 0.9 2.6 0.00 0.12 0.00 100 1012.3
20260510115516 52 195 0.9 2.6 0.00 0.12 0.00 100 1012.3
20260510114535 52 114 0.9 1.7 0.00 0.12 0.00 100 1012.4
20260510113516 52 182 1.7 2.6 0.00 0.12 0.00 100 1012.4
20260510112536 52 187 0.9 1.7 0.00 0.12 0.00 100 1012.4
20260510111516 52 309 0.9 1.7 0.00 0.12 0.00 100 1012.4
20260510110516 51 280 0.9 1.7 0.00 0.12 0.00 100 1012.2
20260510105517 51 223 0.9 0.9 0.00 0.12 0.00 100 1011.8
20260510104517 51 176 0.9 1.7 0.00 0.12 0.00 100 1011.7
20260510103537 50 103 0.9 1.7 0.00 0.12 0.00 100 1011.7
20260510102517 50 19 0.9 2.6 0.00 0.12 0.00 100 1011.8
20260510101517 50 256 0.0 0.9 0.00 0.12 0.00 100 1011.7
20260510100517 50 244 0.0 0.9 0.00 0.12 0.00 100 1011.6
20260510095517 50 137 0.9 1.7 0.00 0.12 0.00 100 1011.5
20260510094518 50 75 0.0 0.9 0.00 0.12 0.00 100 1011.6
20260510093518 50 31 0.0 0.9 0.00 0.12 0.00 100 1011.7
20260510092515 50 187 0.9 2.6 0.00 0.12 0.00 100 1011.7
20260510091515 50 207 0.9 1.7 0.00 0.12 0.00 100 1011.8
20260510090515 50 105 0.9 2.6 0.00 0.12 0.00 100 1011.8
20260510085536 50 30 0.9 3.5 0.00 0.12 0.00 100 1012.0
20260510084515 50 67 0.9 3.5 0.00 0.12 0.00 100 1011.9
20260510083516 50 61 0.9 3.5 0.00 0.12 0.00 100 1011.9
20260510082536 50 46 1.7 4.3 0.00 0.12 0.00 100 1011.8
20260510081536 50 54 0.9 1.7 0.00 0.12 0.00 99 1011.3
20260510080516 50 85 0.9 1.7 0.00 0.12 0.00 99 1011.2
20260510075517 50 129 0.9 0.9 0.00 0.12 0.00 99 1011.1
20260510074536 50 126 0.9 1.7 0.00 0.12 0.00 99 1011.1
20260510073517 50 235 0.0 0.9 0.00 0.12 0.00 99 1011.0
20260510072537 50 17 0.9 2.6 0.00 0.12 0.00 99 1011.0
20260510071517 51 34 0.0 1.7 0.00 0.12 0.00 99 1011.0
20260510070537 51 71 0.9 1.7 0.00 0.12 0.00 99 1011.0
20260510065537 51 26 0.9 2.6 0.00 0.12 0.00 99 1011.1
20260510064518 52 37 0.9 2.6 0.00 0.12 0.00 99 1011.0
20260510063538 52 14 0.9 1.7 0.00 0.12 0.00 99 1010.9
20260510062535 52 8 0.9 2.6 0.00 0.12 0.00 99 1010.8
20260510061558 52 46 0.9 1.7 0.00 0.12 0.00 99 1010.8
20260510060515 51 351 0.9 1.7 0.00 0.12 0.00 99 1010.8
20260510055516 51 302 0.0 1.7 0.00 0.12 0.00 99 1010.8
20260510054556 51 161 0.0 0.9 0.00 0.12 0.00 99 1010.9
20260510053516 51 11 0.9 1.7 0.00 0.12 0.00 99 1010.9
20260510052516 50 336 0.0 2.6 0.00 0.12 0.00 99 1010.9
20260510051516 50 301 0.0 1.7 0.00 0.12 0.00 99 1011.0
20260510050517 50 168 0.0 1.7 0.00 0.12 0.00 99 1011.1
20260510045516 49 353 0.9 1.7 0.00 0.12 0.00 99 1011.1
20260510044516 49 14 0.0 1.7 0.00 0.12 0.00 99 1011.1
20260510043517 49 331 0.0 1.7 0.00 0.12 0.00 99 1011.1
20260510042517 49 12 0.0 1.7 0.00 0.12 0.00 98 1011.2
20260510041517 49 248 0.0 1.7 0.00 0.12 0.00 98 1011.2
20260510040517 48 32 0.9 2.6 0.00 0.12 0.00 98 1011.2
20260510035517 48 18 0.0 1.7 0.00 0.12 0.12 98 1011.2
20260510034517 48 327 0.0 0.9 0.00 0.12 0.12 98 1011.0
20260510033518 48 15 0.9 1.7 0.00 0.12 0.12 98 1010.9
20260510032518 48 192 0.0 0.9 0.00 0.12 0.12 98 1010.9
20260510031518 49 3 0.0 0.9 0.00 0.12 0.12 98 1010.8
20260510030516 49 14 0.9 1.7 0.00 0.12 0.12 98 1010.8
20260510025515 49 41 0.0 1.7 0.00 0.12 0.12 98 1010.7
20260510024515 49 8 0.0 1.7 0.00 0.12 0.12 98 1010.7
20260510023535 49 20 0.0 1.7 0.00 0.12 0.12 98 1010.7
20260510022516 50 6 0.9 1.7 0.00 0.12 0.12 97 1010.8
20260510021516 50 22 0.0 1.7 0.00 0.12 0.12 97 1010.8
20260510020516 50 267 0.0 0.9 0.00 0.12 0.12 97 1010.8
20260510015516 50 0 0.0 1.7 0.00 0.12 0.12 97 1010.6
20260510014517 51 19 0.0 0.9 0.00 0.12 0.12 97 1010.7
20260510013516 51 8 0.0 0.9 0.00 0.12 0.12 97 1010.9
20260510012537 51 4 0.0 0.9 0.00 0.12 0.12 97 1010.7
20260510011517 52 16 0.0 0.9 0.00 0.12 0.12 96 1010.7
20260510010537 52 22 0.0 0.9 0.00 0.12 0.12 96 1010.7
20260510005517 52 8 0.9 0.9 0.00 0.12 0.12 96 1010.4
20260510004518 53 79 0.0 0.9 0.00 0.12 0.12 96 1010.3
20260510003535 53 75 0.0 0.9 0.00 0.12 0.12 95 1010.3
20260510002516 54 26 0.0 0.9 0.00 0.12 0.12 95 1010.2
20260510001515 54 15 0.9 1.7 0.00 0.12 0.12 95 1010.2
20260510000516 55 10 0.0 0.9 0.00 0.12 0.12 94 1010.2
20260509235516 55 353 0.9 1.7 0.00 0.12 0.12 94 1010.2
20260509234536 56 358 0.0 0.9 0.00 0.12 0.12 93 1010.2
20260509233517 56 339 0.0 1.7 0.00 0.12 0.12 92 1010.1
20260509232537 56 44 0.9 1.7 0.00 0.12 0.12 92 1010.1
20260509231537 57 69 0.9 1.7 0.00 0.12 0.12 91 1009.9
20260509230517 57 90 1.7 2.6 0.00 0.12 0.12 91 1010.0
20260509225517 57 96 1.7 4.3 0.00 0.12 0.12 91 1010.2
20260509224517 57 86 1.7 3.5 0.00 0.12 0.12 91 1010.2
20260509223518 57 83 1.7 3.5 0.00 0.12 0.12 92 1010.2
20260509222537 57 98 1.7 3.5 0.00 0.12 0.12 92 1010.1
20260509221518 56 97 0.9 1.7 0.02 0.12 0.12 92 1010.3
20260509220538 57 95 1.7 3.5 0.08 0.12 0.12 92 1010.4
20260509215515 56 134 1.7 2.6 0.08 0.12 0.12 93 1010.6
20260509214535 56 108 0.9 2.6 0.09 0.12 0.12 92 1010.7
20260509213516 56 96 0.9 2.6 0.10 0.12 0.12 92 1010.6
20260509212515 56 102 0.9 1.7 0.10 0.11 0.11 91 1010.6
20260509211515 56 92 0.9 1.7 0.07 0.09 0.09 89 1010.7
20260509210516 57 274 0.0 0.9 0.02 0.03 0.03 89 1010.5
20260509205536 57 79 0.9 1.7 0.02 0.03 0.03 88 1010.3
20260509204516 57 11 0.9 2.6 0.01 0.02 0.02 86 1010.4
20260509203516 58 325 1.7 4.3 0.00 0.02 0.02 85 1010.3
20260509202516 58 340 1.7 2.6 0.00 0.02 0.02 85 1010.3
20260509201516 58 327 1.7 5.2 0.00 0.02 0.02 86 1010.4
20260509200517 58 2 1.7 3.5 0.00 0.02 0.02 86 1010.4
20260509195517 58 321 0.9 3.5 0.00 0.02 0.02 86 1010.6
20260509194518 58 345 0.9 3.5 0.00 0.02 0.02 86 1010.8
20260509193517 58 36 1.7 4.3 0.00 0.01 0.01 84 1011.0